Hourly Weather Bartniki

Today, 19 June, Saturday

Time Temperature Precipitation Wind Pressure Humidity
00:00 +17°C° 0 mm 3 mps 750 mmHg 87%
01:00 +16°C° 0 mm 3 mps 750 mmHg 89%
02:00 +16°C° 0 mm 3 mps 750 mmHg 90%
03:00 +16°C° 0 mm 3 mps 750 mmHg 91%
04:00 +16°C° 0 mm 2 mps 750 mmHg 91%
05:00 +16°C° 0 mm 2 mps 750 mmHg 91%
06:00 +18°C° 0 mm 3 mps 750 mmHg 87%
07:00 +20°C° 0 mm 3 mps 750 mmHg 83%
08:00 +21°C° 0 mm 3 mps 750 mmHg 79%
09:00 +23°C° 0 mm 4 mps 750 mmHg 74%
10:00 +25°C° 0 mm 4 mps 750 mmHg 69%
11:00 +26°C° 0 mm 4 mps 750 mmHg 64%
12:00 +26°C° 0 mm 4 mps 749 mmHg 62%
13:00 +27°C° 0 mm 4 mps 749 mmHg 59%
14:00 +27°C° 0 mm 4 mps 749 mmHg 57%
15:00 +27°C° 0 mm 4 mps 749 mmHg 61%
16:00 +27°C° 0 mm 4 mps 748 mmHg 65%
17:00 +27°C° 0 mm 4 mps 748 mmHg 69%
18:00 +25°C° 0 mm 3 mps 748 mmHg 74%
19:00 +24°C° 0 mm 3 mps 748 mmHg 78%
20:00 +23°C° 0 mm 2 mps 748 mmHg 83%
21:00 +21°C° 0 mm 3 mps 748 mmHg 85%
22:00 +20°C° 0 mm 3 mps 748 mmHg 88%
23:00 +19°C° 0 mm 3 mps 748 mmHg 90%

Tomorrow, 20 June, Sunday

Time Temperature Precipitation Wind Pressure Humidity
00:00 +19°C° 0 mm 3 mps 748 mmHg 92%
01:00 +19°C° 0 mm 3 mps 748 mmHg 93%
02:00 +18°C° 0 mm 2 mps 748 mmHg 94%
03:00 +18°C° 0 mm 2 mps 748 mmHg 95%
04:00 +18°C° 0 mm 2 mps 748 mmHg 95%
05:00 +18°C° 0 mm 2 mps 748 mmHg 95%
06:00 +20°C° 0 mm 3 mps 748 mmHg 91%
07:00 +22°C° 0 mm 3 mps 748 mmHg 86%
08:00 +23°C° 0 mm 4 mps 748 mmHg 82%
09:00 +25°C° 0 mm 4 mps 747 mmHg 77%
10:00 +26°C° 0 mm 5 mps 747 mmHg 71%
11:00 +27°C° 0 mm 5 mps 747 mmHg 66%
12:00 +28°C° 0 mm 5 mps 747 mmHg 65%
13:00 +28°C° 0 mm 5 mps 747 mmHg 64%
14:00 +28°C° 0 mm 5 mps 746 mmHg 63%
15:00 +28°C° 0.4 mm 5 mps 746 mmHg 66%
16:00 +28°C° 0.4 mm 4 mps 746 mmHg 70%
17:00 +27°C° 0.4 mm 4 mps 746 mmHg 73%
18:00 +26°C° 0.1 mm 4 mps 745 mmHg 77%
19:00 +25°C° 0.1 mm 4 mps 745 mmHg 81%
20:00 +24°C° 0.1 mm 3 mps 745 mmHg 86%
21:00 +22°C° 0 mm 3 mps 745 mmHg 87%
22:00 +21°C° 0 mm 3 mps 745 mmHg 89%
23:00 +20°C° 0 mm 3 mps 745 mmHg 91%

Day after tomorrow, 21 June, Monday

Time Temperature Precipitation Wind Pressure Humidity
00:00 +19°C° 0 mm 3 mps 745 mmHg 92%
01:00 +19°C° 0 mm 3 mps 745 mmHg 93%
02:00 +18°C° 0 mm 3 mps 745 mmHg 95%
03:00 +18°C° 0 mm 3 mps 745 mmHg 94%
04:00 +18°C° 0 mm 3 mps 745 mmHg 94%
05:00 +18°C° 0 mm 3 mps 745 mmHg 94%
06:00 +19°C° 0 mm 3 mps 745 mmHg 89%
07:00 +21°C° 0 mm 4 mps 745 mmHg 85%
08:00 +22°C° 0 mm 4 mps 745 mmHg 80%
09:00 +23°C° 0 mm 5 mps 744 mmHg 75%
10:00 +26°C° 0 mm 5 mps 744 mmHg 69%
11:00 +27°C° 0 mm 6 mps 744 mmHg 64%
12:00 +27°C° 0.3 mm 5 mps 744 mmHg 65%
13:00 +27°C° 0.3 mm 5 mps 743 mmHg 67%
14:00 +27°C° 0.3 mm 5 mps 743 mmHg 69%
15:00 +27°C° 0.8 mm 5 mps 743 mmHg 71%
16:00 +27°C° 0.8 mm 5 mps 743 mmHg 74%
17:00 +27°C° 0.8 mm 4 mps 743 mmHg 76%
18:00 +26°C° 0.1 mm 4 mps 743 mmHg 79%
19:00 +25°C° 0.1 mm 3 mps 743 mmHg 81%
20:00 +24°C° 0.1 mm 2 mps 743 mmHg 84%
21:00 +23°C° 0 mm 2 mps 743 mmHg 86%
22:00 +21°C° 0 mm 2 mps 743 mmHg 88%
23:00 +21°C° 0 mm 2 mps 743 mmHg 90%

22 June, Tuesday

Time Temperature Precipitation Wind Pressure Humidity
00:00 +20°C° 0 mm 2 mps 743 mmHg 92%
01:00 +20°C° 0 mm 2 mps 743 mmHg 93%
02:00 +20°C° 0 mm 2 mps 743 mmHg 94%
03:00 +20°C° 0 mm 2 mps 743 mmHg 94%
04:00 +19°C° 0 mm 2 mps 743 mmHg 94%
05:00 +19°C° 0 mm 2 mps 743 mmHg 94%
06:00 +21°C° 0 mm 3 mps 743 mmHg 89%
07:00 +24°C° 0 mm 3 mps 743 mmHg 85%
08:00 +25°C° 0 mm 4 mps 744 mmHg 80%
09:00 +26°C° 0 mm 4 mps 744 mmHg 75%
10:00 +27°C° 0 mm 4 mps 744 mmHg 70%
11:00 +28°C° 0 mm 4 mps 744 mmHg 65%
12:00 +29°C° 0.3 mm 4 mps 744 mmHg 64%
13:00 +29°C° 0.3 mm 4 mps 744 mmHg 63%
14:00 +29°C° 0.3 mm 4 mps 744 mmHg 63%
15:00 +29°C° 0.4 mm 4 mps 744 mmHg 66%
16:00 +29°C° 0.4 mm 3 mps 744 mmHg 68%
17:00 +28°C° 0.4 mm 3 mps 744 mmHg 71%
18:00 +26°C° 1.2 mm 3 mps 744 mmHg 76%
19:00 +24°C° 1.2 mm 3 mps 744 mmHg 82%
20:00 +21°C° 1.2 mm 3 mps 744 mmHg 87%
21:00 +20°C° 1.1 mm 2 mps 744 mmHg 87%
22:00 +20°C° 1.1 mm 2 mps 745 mmHg 87%
23:00 +21°C° 1.1 mm 1 mps 745 mmHg 87%

23 June, Wednesday

Time Temperature Precipitation Wind Pressure Humidity
00:00 +19°C° 0 mm 2 mps 745 mmHg 89%
01:00 +19°C° 0 mm 2 mps 745 mmHg 90%
02:00 +19°C° 0 mm 3 mps 745 mmHg 92%
03:00 +19°C° 0.1 mm 2 mps 745 mmHg 93%
04:00 +19°C° 0.1 mm 2 mps 745 mmHg 94%
05:00 +19°C° 0.1 mm 2 mps 745 mmHg 95%
06:00 +21°C° 0.1 mm 2 mps 745 mmHg 91%
07:00 +22°C° 0.1 mm 3 mps 746 mmHg 87%
08:00 +25°C° 0.1 mm 3 mps 746 mmHg 83%
09:00 +26°C° 0.1 mm 3 mps 746 mmHg 78%
10:00 +27°C° 0.1 mm 3 mps 746 mmHg 72%
11:00 +28°C° 0.1 mm 4 mps 746 mmHg 66%
12:00 +29°C° 0 mm 4 mps 746 mmHg 64%
13:00 +30°C° 0 mm 4 mps 746 mmHg 62%
14:00 +30°C° 0 mm 4 mps 746 mmHg 60%
15:00 +30°C° 0 mm 3 mps 746 mmHg 62%
16:00 +30°C° 0 mm 3 mps 746 mmHg 64%
17:00 +30°C° 0 mm 2 mps 746 mmHg 66%
18:00 +29°C° 0.1 mm 2 mps 746 mmHg 70%
19:00 +28°C° 0.1 mm 2 mps 746 mmHg 75%
20:00 +26°C° 0.1 mm 2 mps 746 mmHg 80%
21:00 +26°C° 0 mm 2 mps 746 mmHg 82%
22:00 +25°C° 0 mm 2 mps 746 mmHg 84%
23:00 +24°C° 0 mm 2 mps 746 mmHg 87%

24 June, Thursday

Time Temperature Precipitation Wind Pressure Humidity
00:00 +23°C° 0 mm 2 mps 746 mmHg 88%
01:00 +23°C° 0 mm 2 mps 746 mmHg 89%
02:00 +21°C° 0 mm 2 mps 746 mmHg 91%
03:00 +21°C° 0 mm 2 mps 746 mmHg 91%
04:00 +21°C° 0 mm 2 mps 746 mmHg 92%
05:00 +21°C° 0 mm 2 mps 746 mmHg 92%
06:00 +22°C° 0 mm 3 mps 746 mmHg 88%
07:00 +25°C° 0 mm 3 mps 746 mmHg 84%
08:00 +26°C° 0 mm 3 mps 746 mmHg 80%
09:00 +28°C° 0 mm 3 mps 746 mmHg 76%
10:00 +29°C° 0 mm 4 mps 746 mmHg 71%
11:00 +30°C° 0 mm 4 mps 746 mmHg 67%
12:00 +30°C° 0.5 mm 3 mps 746 mmHg 64%
13:00 +31°C° 0.5 mm 3 mps 746 mmHg 61%
14:00 +31°C° 0.5 mm 3 mps 746 mmHg 59%
15:00 +31°C° 0.3 mm 2 mps 745 mmHg 61%
16:00 +31°C° 0.3 mm 2 mps 745 mmHg 64%
17:00 +30°C° 0.3 mm 2 mps 745 mmHg 67%
18:00 +27°C° 1.4 mm 3 mps 745 mmHg 75%
19:00 +23°C° 1.4 mm 4 mps 745 mmHg 84%
20:00 +20°C° 1.4 mm 5 mps 745 mmHg 92%
21:00 +20°C° 0.7 mm 5 mps 745 mmHg 93%
22:00 +19°C° 0.7 mm 4 mps 744 mmHg 94%
23:00 +18°C° 0.7 mm 4 mps 744 mmHg 95%
Show more